Simultaneous Nadir Overpasses (SNOs) Predictions

Prediction of SNOs between LANDSAT-8 and TERRA Satellite Orbit:

Table of predicted SNOs for the next 14.0 days since TLE Epoch: 7/15/2023
Index Date (LANDSAT-8) Time (LANDSAT-8) Lat,Lon (LANDSAT-8) SZA (LANDSAT-8 ) Date (TERRA) Time (TERRA) Lat,Lon (TERRA) SZA (TERRA ) Distance(km) Time Diff (sec)
1 07/23/2023 07:11:10 -81.68, -34.23 112.49 07/23/2023 07:12:24 -81.74, -34.19 112.42 7.21 74
2 07/23/2023 08:00:09 81.23, 144.30 69.04 07/23/2023 08:01:18 81.22, 144.32 69.08 0.50 69
3 07/23/2023 08:49:36 -81.24, -48.27 110.99 07/23/2023 08:50:41 -81.24, -48.21 110.94 1.03 65
4 07/23/2023 09:39:02 81.23, 119.60 69.05 07/23/2023 09:40:02 81.22, 119.71 69.11 2.08 60
5 07/23/2023 10:28:28 -81.22, -72.60 110.92 07/23/2023 10:29:24 -81.21, -72.46 110.87 2.62 56
6 07/23/2023 11:17:53 81.18, 95.64 69.18 07/23/2023 11:18:45 81.19, 95.46 69.19 3.11 52
7 07/23/2023 12:07:19 -81.17, -96.57 110.80 07/23/2023 12:08:07 -81.18, -96.71 110.79 2.55 48
8 07/23/2023 12:56:45 81.16, 71.30 69.25 07/23/2023 12:57:28 81.16, 71.22 69.26 1.51 43
9 07/23/2023 13:46:11 -81.15,-120.91 110.73 07/23/2023 13:46:50 -81.15,-120.96 110.71 0.97 39
10 07/23/2023 14:35:38 81.16, 46.59 69.27 07/23/2023 14:36:12 81.16, 46.60 69.29 0.11 34
11 07/23/2023 15:25:04 -81.15,-145.61 110.71 07/23/2023 15:25:34 -81.14,-145.58 110.68 0.63 30
12 07/23/2023 16:14:30 81.13, 22.26 69.34 07/23/2023 16:14:55 81.13, 22.35 69.37 1.69 25
13 07/23/2023 17:03:56 -81.12,-169.95 110.64 07/23/2023 17:04:17 -81.11,-169.83 110.61 2.22 21
14 07/23/2023 17:53:22 81.11, -2.08 69.41 07/23/2023 17:53:38 81.09, -1.91 69.44 3.29 16
15 07/23/2023 18:42:47 -81.07, 166.07 110.51 07/23/2023 18:43:00 -81.08, 165.91 110.53 2.95 13
16 07/23/2023 19:32:13 81.06, -26.06 69.53 07/23/2023 19:32:21 81.06, -26.17 69.52 1.90 8
17 07/23/2023 20:21:39 -81.05, 141.72 110.44 07/23/2023 20:21:43 -81.05, 141.65 110.45 1.36 4
18 07/23/2023 21:11:06 81.06, -50.77 69.55 07/23/2023 21:11:05 81.06, -50.78 69.55 0.31 1
19 07/23/2023 22:00:32 -81.05, 117.02 110.43 07/23/2023 22:00:27 -81.05, 117.03 110.43 0.25 5
20 07/23/2023 22:49:58 81.03, -75.12 69.62 07/23/2023 22:49:48 81.03, -75.05 69.63 1.31 10
21 07/23/2023 23:39:24 -81.02, 92.67 110.35 07/23/2023 23:39:10 -81.02, 92.77 110.35 1.82 14
22 07/24/2023 00:28:50 81.01, -99.47 69.69 07/24/2023 00:28:31 81.00, -99.31 69.70 2.91 19
23 07/24/2023 01:18:14 -80.94, 69.02 110.17 07/24/2023 01:17:52 -80.96, 68.84 110.22 3.35 22
24 07/24/2023 02:07:41 80.95,-123.46 69.82 07/24/2023 02:07:14 80.96,-123.58 69.78 2.28 27
25 07/24/2023 02:57:06 -80.92, 44.66 110.10 07/24/2023 02:56:35 -80.92, 44.57 110.14 1.76 31
26 07/24/2023 03:46:33 80.93,-147.82 69.89 07/24/2023 03:45:57 80.93,-147.85 69.86 0.68 36
27 07/24/2023 04:35:58 -80.92, 19.96 110.09 07/24/2023 04:35:18 -80.92, 19.95 110.11 0.19 40
28 07/24/2023 05:25:24 80.90,-172.18 69.96 07/24/2023 05:24:39 80.90,-172.13 69.94 0.92 45
29 07/24/2023 06:14:50 -80.89, -4.40 110.01 07/24/2023 06:14:01 -80.88, -4.33 110.03 1.42 49
30 07/24/2023 07:04:16 80.87, 163.46 70.03 07/24/2023 07:03:22 80.86, 163.59 70.02 2.52 54
31 07/24/2023 07:53:42 -80.86, -28.76 109.94 07/24/2023 07:52:44 -80.85, -28.61 109.96 3.01 58
32 07/24/2023 08:43:06 80.79, 139.79 70.22 07/24/2023 08:42:04 80.80, 139.65 70.15 2.67 62
33 07/24/2023 09:32:32 -80.78, -52.45 109.76 07/24/2023 09:31:26 -80.79, -52.56 109.82 2.15 66



Historial Predications of SNOs between LANDSAT-8 and TERRA
